Weather in Chirkovo

Russia / Saint-Petersburg and Leningrad Oblast     59°31′14″N   32°07′03″E
temp.,
°C
wind,
m/s
gust,
m/s
humid.,
%
clouds,
%
prec.,
mm/h
press.,
hPa
HPBL,
m
15 june, tue
tue1500:00+13s2275100 0.0 101528
03:00+11ssw257771 0.0 101489
06:00+13ssw3117199 0.0 1012352
09:00+18ssw51153100 0.0 1010832
12:00+21sw6947100 0.0 10091513
15:00+15w259094 0.4 1010152
18:00+21wsw3651100 0.3 10092040
21:00+15nw166797 0.3 1010224
16 june, wed
wed1600:00+14w3958100 0.0 1011349
03:00+9wnw29800 0.0 1013197
06:00+11wnw310740 0.0 1015373
09:00+17wnw47430 0.0 10161290
12:00+20wnw5834100 0.0 10172122
15:00+20wnw61030100 0.0 10172074
18:00+19wnw493984 0.0 10181427
21:00+15wnw116212 0.0 101911
17 june, thu
thu1700:00+14sw2559100 0.0 1020104
03:00+12sw22745 0.0 102137
06:00+13wsw137072 0.0 1022106
09:00+19wsw23469 0.0 1023716
12:00+23w35365 0.0 10231759
15:00+25w3433100 0.0 10231971
18:00+24w2440100 0.0 10231725
21:00+19nnw01682 0.0 102311
18 june, fri
fri1800:00+14ssw11824 0.0 102411
03:00+13sw23700 0.0 102549
06:00+15ssw257341 0.0 1025143
09:00+22ssw365333 0.0 1024568
12:00+26sw57395 0.0 10231672
15:00+28sw57350 0.0 10222046
18:00+27sw48400 0.0 10201892
21:00+22ssw310650 0.0 1020256
19 june, sat
sat1900:00+18sw312770 0.0 1021259
03:00+16sw29860 0.0 1022187
06:00+18ssw27821 0.0 1022185
09:00+24sw366014 0.0 1022598
12:00+28sw4647100 0.0 10212309
15:00+26ssw385889 0.0 1021558
18:00+28ssw474984 0.0 1020834
21:00+23ssw2767100 0.0 1021176